Volver al catálogo

EUTE 16A

EUTE W3C

ActivoComunicacionesGEO
NORAD 37836·PAYLOAD·🇪🇺 EU

Lanzado Oct 7, 2011 desde Xichang Satellite Launch Center

Loading…

TLE

ActualizadoSource: Space-Track

Época: Sep 14, 2026, 13:52 UTC

1 37836U 11057A   26257.57830770  .00000096  00000-0  00000-0 0  9995
2 37836   0.0928  62.8366 0005524 108.9173  45.9908  1.00270751  8235

Sigue EUTE 16A en tiempo real con AllMySat

Download on the App Store